This is the latest recevied weather packets stored in our database for station/object LX0WX-13. If no packets are shown the sender has not sent any weather packets the latest 10 day(s).
| Time | Temp. | Humidity | Pressure | Rain* | Wind** | Luminosity | Snow |
|---|---|---|---|---|---|---|---|
| 1778030751 | 10° C | 96% | 1001.4 hPa | 1.02 mm | - | - | - |
| 1778030451 | 10° C | 96% | 1001.4 hPa | 1.02 mm | - | - | - |
| 1778030151 | 10° C | 96% | 1001.4 hPa | 1.02 mm | - | - | - |
| 1778029851 | 10° C | 96% | 1001.5 hPa | 1.52 mm | - | - | - |
| 1778029551 | 10° C | 96% | 1001.5 hPa | 3.05 mm | - | - | - |
| 1778029251 | 10° C | 96% | 1001.6 hPa | 2.54 mm | - | - | - |
| 1778028951 | 10° C | 96% | 1001.4 hPa | 3.05 mm | - | - | - |
| 1778028651 | 10° C | 96% | 1001.6 hPa | 3.05 mm | - | - | - |
| 1778028351 | 10° C | 96% | 1001.7 hPa | 3.05 mm | - | - | - |
| 1778028051 | 10° C | 96% | 1001.7 hPa | 3.05 mm | - | - | - |
| 1778027751 | 10° C | 96% | 1001.8 hPa | 3.05 mm | - | - | - |
| 1778027451 | 10° C | 96% | 1001.9 hPa | 3.05 mm | - | - | - |
| 1778027151 | 10° C | 96% | 1001.9 hPa | 3.05 mm | - | - | - |
| 1778026851 | 10° C | 96% | 1002 hPa | 3.05 mm | - | - | - |
| 1778026551 | 10° C | 96% | 1002 hPa | 2.03 mm | - | - | - |
| 1778026251 | 10° C | 96% | 1002.1 hPa | 1.52 mm | - | - | - |
| 1778025951 | 10° C | 96% | 1001.9 hPa | 0.51 mm | - | - | - |
| 1778025651 | 10° C | 96% | 1002 hPa | 0 mm | - | - | - |
| 1778025351 | 10° C | 96% | 1002.1 hPa | 0 mm | - | - | - |
| 1778025051 | 10° C | 96% | 1002.1 hPa | 0 mm | - | - | - |
| 1778024751 | 10° C | 96% | 1002.1 hPa | 0 mm | - | - | - |
| 1778024451 | 10° C | 96% | 1002.3 hPa | 0 mm | - | - | - |
| 1778024151 | 10° C | 96% | 1002.4 hPa | 0 mm | - | - | - |
| 1778023851 | 10° C | 96% | 1002.5 hPa | 0 mm | - | - | - |
| 1778023551 | 10° C | 96% | 1002.5 hPa | 0 mm | - | - | - |
* Rain latest hour (hover to see other rain measurements)
** Current wind speed in m/s (hover to see current wind gust speed)